Regional Weather Roundup
Issued by NWS

Home | Current Version | Previous Version | Text Only | Print | Product List | Glossary On
Versions: 1 2 3 4 5 6 7 8 9 10 11 12 13 14 15 16 17 18 19 20 21 22 23 24 25 26 27 28
000
ASUS45 KBOU 161107
RWRCO

WEATHER ROUNDUP FOR COLORADO
NATIONAL WEATHER SERVICE DENVER/BOULDER CO
400 AM MST MON JAN 16 2017

NOTE: "FAIR" INDICATES FEW OR NO CLOUDS BELOW 12000 FEET WITH NO
SIGNIFICANT WEATHER AND/OR OBSTRUCTIONS TO VISIBILITY.

COZ001>005-013-030-031-161200-
...NORTHWEST COLORADO...

CITY           SKY/WX    TMP DP  RH WIND       PRES   REMARKS
CRAIG          CLOUDY    14   9  80 W5        30.08S WCI   6
HAYDEN         CLOUDY    16  12  86 W7        30.05R WCI   6
MEEKER         FAIR      18  14  84 CALM      30.05S
MOUNT WERNER   NOT AVBL
STEAMBOAT SPGS CLOUDY    19  18  94 CALM      30.03R
WALDEN           N/A    N/A N/A N/A CALM      30.00R
$$

COZ006>008-011-161200-
...WEST CENTRAL VALLEYS...

CITY           SKY/WX    TMP DP  RH WIND       PRES   REMARKS
GRAND JUNCTION MOCLDY    33  26  75 N5        29.98F WCI  29
MONTROSE       LGT SNOW  30  29  96 SE7       30.00F FOG     WCI  23
EAGLE          LGT SNOW  27  25  92 E3        29.99S FOG
RIFLE          CLOUDY    30  20  66 NW7       30.01S WCI  23
DELTA          CLOUDY    35  32  88 NE7       29.97S WCI  29
NUCLA          FLURRIES  34  28  80 CALM      29.98F
$$

COZ017>023-064>068-161200-
...SOUTHWEST COLORADO...

CITY           SKY/WX    TMP DP  RH WIND       PRES   REMARKS
DURANGO        FLURRIES  33  30  88 SW6       29.86S WCI  28
CORTEZ         CLOUDY    35  32  88 NW7       29.91F WCI  29
PAGOSA SPRINGS LGT SNOW  32  32 100 CALM      29.88S
TELLURIDE      LGT SNOW  26  26  99 W8        29.93S WCI  18
WOLF CREEK PAS   N/A     21  21 100 CALM      29.94S
$$

COZ009-010-012-014-032>034-037-058>063-161200-
...CENTRAL COLORADO...

CITY           SKY/WX    TMP DP  RH WIND       PRES   REMARKS
ASPEN          CLOUDY    27  26  96 NW5       29.94R FOG     WCI  22
BUENA VISTA    LGT SNOW  30  28  95 CALM      29.88R
COPPER MTN     SNOW      23  18  80 MISG      29.93S VSB 1/4
BERTHOUD PASS  NOT AVBL
COTTONWOOD PAS LGT SNOW  32  30  93 CALM      29.89S
GUNNISON       NOT AVBL
KREMMLING      LGT SNOW  27  23  86 CALM      29.98R
LEADVILLE      LGT SNOW  24  21  88 NW10      29.89R FOG     WCI  14
MONARCH PASS   LGT SNOW  23  21  93 MISG      30.01S
SALIDA         CLOUDY    32  32  98 CALM      29.95S VSB 1
SUNLIGHT       LGT SNOW  21  19  93 CALM      29.98F
WILKERSON PASS CLOUDY   N/A N/A N/A NE10G21   29.92S HAZE
$$

COZ069>075-161200-
...SAN LUIS VALLEY/SANGRE DE CRISTO MOUNTAINS...

CITY           SKY/WX    TMP DP  RH WIND       PRES   REMARKS
ALAMOSA        LGT SNOW  31  31 100 CALM      29.85S FOG
LA VETA PASS   LGT SNOW  27  23  86 SE10G16   29.86F WCI  17
SAGUACHE       LGT SNOW  32  32 100 NW6       29.86S WCI  26
$$

COZ035-036-038>040-161200-
...NORTHERN COLORADO FRONT RANGE...

CITY           SKY/WX    TMP DP  RH WIND       PRES   REMARKS
DENVER INTL AP LGT SNOW  28  25  88 N9        29.96R FOG     WCI  19
DMNS CITY PARK   N/A     28  28 100 NE6G15    29.97R WCI  22
AURORA         LGT SNOW  27  27 100 N8        29.96R FOG     WCI  18
FRONT RANGE AP LGT SNOW  30  28  93 N9        29.96S WCI  22
ERIE MUNI ARPT LGT SNOW  30  29  98 CALM      29.97S
BOULDER MUN AP LGT SNOW  32  32 100 CALM      29.96S VSB 1
CENTENNIAL     LGT SNOW  28  27  96 N7        29.94S VSB 1   WCI  21
BROOMFIELD     LGT SNOW  32  32 100 NE9       29.96R WCI  24
FORT COLLINS   CLOUDY    32  30  93 N10       29.97S WCI  24
LONGMONT       LGT SNOW  33  32  96 CALM      29.99R
$$

COZ041-046-047-076>085-087-088-161200-
...PIKES PEAK/PALMER DIVIDE AND SOUTHERN FOOTHILLS...

CITY           SKY/WX    TMP DP  RH WIND       PRES   REMARKS
COLO. SPRINGS  LGT SNOW  30  24  78 NW21G30   29.88R WCI  17
A. F. ACADEMY  MIX PCPN  28  24  84 N18G24    29.88R WCI  16
SCHRIEVER AFB  NOT AVBL
ELLICOTT       LGT SNOW N/A N/A N/A N22G30    29.84S
FALCON         LGT SNOW  28  23  80 N24G33    29.85S WCI  14
FORT CARSON    LGT SNOW  30  29  94 NE20G29   29.87S WCI  18
LIMON          LGT SNOW  27  25  92 NW20      29.89S FOG     WCI  13
MONUMENT HILL  LGT SNOW  23  23 100 NW14      29.91F WCI  11
TRINIDAD       SNOW      32  30  92 NW8       29.86S VSB 1/2 WCI  25
$$

COZ042>045-048>051-090-091-161200-
...NORTHEAST COLORADO...

CITY           SKY/WX    TMP DP  RH WIND       PRES   REMARKS
GREELEY ARPT   FLURRIES  30  28  92 CALM      29.98S
AKRON          MIX PCPN  28  26  92 N14       29.92S FOG     WCI  17
BURLINGTON     FLURRIES  31  29  92 N13       29.88F WCI  21
WRAY           LGT SNOW N/A N/A N/A N7        29.94S
STERLING       LGT SNOW  32  30  93 N6        29.94S WCI  26
HOLYOKE        LGT SNOW  34  32  93 N7        29.94S WCI  28
FORT MORGAN    LGT SNOW  29  28  95 W6        29.96R WCI  23
$$

COZ086-089-092>099-161200-
...SOUTHEAST COLORADO...

CITY           SKY/WX    TMP DP  RH WIND       PRES   REMARKS
PUEBLO         SNOW      33  31  92 CALM      29.89R VSB 1/2
LA JUNTA       LGT SNOW  32  30  92 NW9       29.89S FOG     WCI  24
LAMAR          LGT SNOW  32  30  92 NW8       29.84F FOG     WCI  25
SPRINGFIELD      N/A     29  29 100 NW14      29.82R WCI  18
$$




USA.gov is the U.S. government's official web portal to all federal, state and local government web resources and services.